Regional Weather Roundup
Issued by NWS

Home | Current Version | Previous Version | Graphics & Text | Print | Product List | Glossary On
Versions: 1 2 3 4 5 6 7 8 9 10 11 12 13 14 15 16 17 18 19 20 21 22 23 24 25 26 27
000
ASUS45 KTFX 271110
RWRMT
MONTANA REGIONAL WEATHER ROUNDUP
NATIONAL WEATHER SERVICE GREAT FALLS MT
500 AM MDT THU APR 27 2017

NOTE: "FAIR" INDICATES FEW OR NO CLOUDS BELOW 12000 FEET WITH NO
SIGNIFICANT WEATHER AND/OR OBSTRUCTIONS TO VISIBILITY.

MTZ001>007-043-271200-
WEST OF THE DIVIDE

CITY           SKY/WX    TMP DP  RH WIND       PRES   REMARKS
KALISPELL      LGT RAIN  39  32  76 SE13      29.66S WCI  31
MISSOULA       CLOUDY    38  35  89 N8        29.75R
BUTTE          CLOUDY    34  26  72 NW15      29.66S WCI  24
MULLAN PASS    FOG       26  26 100 W8        29.69R VSB 1/2 WCI  18
ANACONDA         N/A     36  27  69 W13       29.68S WCI  27
DEER LODGE       N/A     34  30  86 NW5       29.71R
EUREKA           N/A     41  37  87 E7        29.65S
HAMILTON         N/A     39  28  65 CALM      29.73S
LIBBY            N/A     37  37 100 CALM      29.67R
PLAINS           N/A     44  35  70 CALM      29.75
$$

MTZ008-052>055-271200-
SOUTHWEST MONTANA

CITY           SKY/WX    TMP DP  RH WIND       PRES   REMARKS
BOZEMAN        LGT RAIN  35  33  92 N6        29.65R WCI  30
DILLON         CLOUDY    33  30  88 S8        29.66S WCI  26
W YELLOWSTONE  LGT SNOW  32  32 100 CALM      29.59S
ENNIS          FOG       32  32 100 NW6       29.70R VSB 3/4 WCI  26
THREE FORKS      N/A     39  39 100 CALM      29.68R
TWIN BRIDGES     N/A     37  28  70 NW2       29.70
$$

MTZ009-010-012-014-046-048-049-054-271200-
EAST SLOPES AND CENTRAL MONTANA

CITY           SKY/WX    TMP DP  RH WIND       PRES   REMARKS
CUT BANK       MIX PCPN  38  37  97 NW6       29.60S
GREAT FALLS    CLOUDY    37  34  89 SW9       29.60R WCI  30
HELENA         CLOUDY    42  29  59 W13G21    29.64R
CHOTEAU          N/A     36  32  87 N8        29.61S WCI  29
$$

MTZ011-013-016-021-045-047-050-051-271200-
NORTH CENTRAL MONTANA

CITY           SKY/WX    TMP DP  RH WIND       PRES   REMARKS
HAVRE          CLOUDY    41  39  93 CALM      29.59S
LEWISTOWN      CLOUDY    38  36  92 CALM      29.58S
CHINOOK          N/A     41  36  81 E8        29.60R
FORT BENTON      N/A     41  39  93 MISG      29.61S
$$

MTZ017>020-022>027-061-062-271200-
NORTHEAST MONTANA

CITY           SKY/WX    TMP DP  RH WIND       PRES   REMARKS
GLASGOW        CLOUDY    32  21  64 E17       29.66S WCI  21
JORDAN           N/A     33  28  81 NE7       29.61S WCI  27
SIDNEY         CLEAR     24  20  84 NE3       29.74S
WOLF POINT     PTCLDY    27  22  81 NE9       29.71S WCI  18
PLENTYWOOD       N/A     28  25  86 E10       29.75R WCI  19
POPLAR           N/A     28  23  80 NE7       29.72F WCI  21
SCOBEY           N/A     28  18  66 E12       29.71  WCI  18
$$

MTZ028>42-056>058-271200-
SOUTHCENTRAL AND SOUTHEAST MONTANA

CITY           SKY/WX    TMP DP  RH WIND       PRES   REMARKS
BAKER          CLEAR     27  23  85 SE13      29.68S WCI  16
BILLINGS       MOCLDY    41  37  86 W7        29.57S
LIVINGSTON     LGT RAIN  37  35  92 NW15      29.61R WCI  28
MILES CITY     PTCLDY    35  30  82 NE8       29.63S WCI  29
BIG TIMBER     CLOUDY    39  36  87 W12G20    29.60S WCI  32
EKALAKA          N/A     28  21  75 SE10      29.63F WCI  19
LAUREL           N/A     39  31  73 CALM      29.60R
ROUNDUP          N/A     39  34  82 CALM      29.53S
$$

REGIONAL REPORTS...DAKOTAS

CITY           SKY/WX    TMP DP  RH WIND       PRES   REMARKS
WILLISTON      CLEAR     26  21  81 N3        29.76F
MINOT          CLEAR     24  19  81 NW7       29.76F WCI  16
DICKINSON      CLEAR     17  15  92 SE3       29.71R
BEACH            N/A     23  23 100 SE8       29.73S WCI  14
TIOGA            N/A     19  19 100 E5        29.77S
WATFORD CITY     N/A     25  25 100 CALM      29.75S
BISMARCK       PTCLDY    30  24  78 N7        29.74F WCI  23
GRAND FORKS    CLOUDY    28  25  88 N14       29.72F WCI  17
FARGO          MIX PCPN  26  23  88 N20       29.68F WCI  12
BUFFALO SD       N/A     27  24  89 E9        29.60F WCI  18
RAPID CITY     CLOUDY    28  25  88 E3        29.64F
$$

REGIONAL REPORTS...WYOMING/IDAHO/WASHINGTON

CITY           SKY/WX    TMP DP  RH WIND       PRES   REMARKS
GILLETTE       CLOUDY    33  32  96 SE8       29.55S WCI  26
SHERIDAN       FOG       31  30  96 N3        29.56F VSB 1/2
BUFFALO WY     CLOUDY    34  28  79 N8        29.54S WCI  27
CODY           LGT SNOW  33  31  92 NW6       29.58S FOG     WCI  28
YELLOWSTONE LA   N/A     26  26 100 CALM      29.58F
IDAHO FALLS    CLOUDY    35  34  96 S9        29.67R WCI  28
SALMON         CLOUDY    37  28  70 W3        29.73S
BOISE          CLOUDY    39  35  86 W10       29.88R
SPOKANE        MOCLDY    37  29  72 SW15      29.77R WCI  28
$$

REGIONAL REPORTS...ALBERTA

CITY           SKY/WX    TMP DP  RH WIND       PRES   REMARKS
EDMONTON       CLOUDY    34  32  93 E2        29.73R
LETHBRIDGE     LGT SNOW  34  34 100 N7        29.65R WCI  28
$$

REGIONAL REPORTS...SASKATCHEWAN

CITY           SKY/WX    TMP DP  RH WIND       PRES   REMARKS
$$




USA.gov is the U.S. government's official web portal to all federal, state and local government web resources and services.